Wind_Speed
19 19 20 20 20 20 20 20 20 20 20 20 20 21 21 22 22 23 23 23 23 23 23 23 23 23 23 23 23 23 23 24 23 24 25 25 25 26 26 26 27 27 27
22 21 22 22 21 22 22 22 22 22 22 22 22 23 23 23 23 24 24 24 24 24 24 24 24 24 24 24 24 24 25 25 25 25 25 26 26 27 27 28 28 29 30
23 24 24 24 23 24 24 24 23 23 23 24 24 24 24 24 25 25 25 25 26 25 25 25 24 24 24 24 25 25 26 26 26 26 26 26 27 28 29 29 30 31 31
25 26 25 25 25 25 25 26 25 25 25 25 26 25 25 25 25 26 26 27 26 26 25 25 25 25 25 25 25 26 27 27 27 27 27 27 27 28 29 29 31 31 31
27 27 26 26 26 26 27 27 27 27 26 26 27 27 27 27 27 27 27 28 27 27 27 26 25 25 25 26 26 27 27 27 28 28 28 27 28 28 29 29 30 31 31
27 26 27 27 27 27 28 28 28 28 28 28 28 28 28 28 28 28 28 28 28 28 28 28 27 27 27 27 27 27 28 28 28 28 28 28 27 28 29 30 30 30 31
28 27 27 28 28 28 28 28 28 29 29 28 28 29 29 29 29 29 29 29 29 29 28 27 27 27 27 27 28 29 28 28 28 28 28 28 28 28 28 29 29 30 30
29 30 30 29 29 28 28 29 29 30 30 30 31 30 30 30 30 30 30 30 29 28 28 28 29 29 29 28 27 27 27 28 28 28 28 28 28 28 28 28 28 29 29
31 30 29 29 29 29 30 30 30 30 30 31 31 31 31 30 30 30 30 29 30 29 29 30 29 29 29 28 28 28 28 28 28 28 28 28 28 28 28 28 28 28 28
32 30 30 30 30 30 31 31 30 30 30 30 31 31 30 30 30 30 30 30 31 31 31 31 30 30 30 29 29 29 29 29 30 30 29 29 29 29 29 29 29 29 29
32 32 32 31 32 32 32 31 31 31 30 30 31 31 31 31 32 31 31 31 31 30 30 31 30 30 31 31 31 30 30 31 30 30 30 30 30 29 30 30 30 29 29
34 34 33 33 33 32 32 32 32 32 31 31 31 31 31 31 31 31 31 31 31 31 31 30 31 31 31 31 31 31 31 32 32 32 31 31 31 30 30 30 30 30 29
35 35 35 35 33 32 33 33 32 31 31 31 31 31 31 31 31 31 32 32 31 31 31 31 31 31 31 31 31 31 32 32 32 32 31 31 31 31 31 30 30 30 30
36 35 35 35 34 34 33 33 33 33 32 31 31 31 31 31 31 32 32 32 32 32 32 31 31 31 31 31 32 32 32 32 32 31 31 31 30 30 30 30 30 30 30
36 35 35 35 35 34 33 33 33 33 33 32 31 32 32 32 31 31 31 32 32 32 32 32 32 31 31 32 32 32 32 32 32 32 31 30 30 30 30 30 29 29 29
35 35 34 34 34 34 34 33 32 32 32 32 32 32 32 31 30 31 31 31 32 32 32 31 31 31 31 31 31 31 31 32 32 31 30 30 29 29 28 28 28 28 28
34 34 34 33 33 34 34 34 33 33 33 33 32 31 31 31 31 31 32 31 31 30 30 30 30 30 29 30 30 30 30 30 30 29 29 29 29 29 28 27 27 27 27
35 35 34 33 33 33 33 34 34 33 32 32 31 31 31 31 31 31 31 31 30 30 31 31 31 30 30 29 29 29 29 29 28 28 28 28 28 28 28 28 27 27 26
34 34 34 34 34 34 33 33 33 32 32 32 32 31 32 32 32 32 32 32 31 31 31 31 31 30 29 29 29 28 28 28 28 28 28 28 28 28 27 27 26 26 26
34 34 34 34 34 33 33 33 33 32 32 32 32 32 32 32 31 31 31 31 31 31 30 30 29 28 28 29 29 28 28 28 27 28 28 27 26 26 25 25 24 24 24
32 32 33 33 33 33 33 33 33 32 33 33 33 33 33 32 31 31 31 31 31 30 29 29 28 28 28 29 29 28 28 27 27 27 26 25 24 24 23 23 23 23 23
32 32 32 33 32 32 32 32 32 33 33 32 32 32 31 31 31 30 29 29 29 29 29 29 29 29 29 29 29 28 28 28 27 26 26 25 24 24 23 23 23 22 21
31 31 31 32 32 31 32 32 32 33 32 32 31 31 31 30 29 29 28 28 28 29 29 29 28 29 28 28 27 26 26 26 26 26 25 24 24 23 22 22 21 20 20
30 30 30 30 30 31 31 32 32 32 32 31 30 30 29 29 28 28 28 27 27 28 28 28 28 27 26 26 25 25 25 25 24 24 24 24 23 22 21 20 20 20 20
29 29 29 29 29 30 30 30 31 31 30 30 30 30 29 29 28 28 28 28 28 28 27 27 27 27 26 25 24 24 24 24 23 23 22 21 20 20 20 19 18 18 18
29 29 29 29 30 30 29 29 29 28 27 28 28 28 28 28 28 28 28 28 27 27 27 27 26 26 25 24 23 22 23 23 22 21 20 19 19 18 17 17 16 16 17
Wind_Direction
305 306 307 307 306 305 305 305 305 305 304 303 303 302 302 302 301 299 299 300 301 299 297 295 296 295 294 293 293 291 290 289 284 282 279 273 273 273 271 272 272 272 272
303 303 305 305 304 303 302 302 302 301 300 300 300 300 299 301 300 299 298 298 298 297 295 293 293 293 294 294 293 291 290 288 285 284 279 277 275 274 273 273 273 273 272
303 302 301 302 302 302 301 300 299 299 298 298 298 299 298 299 300 299 297 296 298 297 296 294 292 291 291 292 292 291 290 290 287 285 281 278 276 275 274 273 273 274 274
302 301 298 297 299 299 299 298 297 297 296 296 296 296 297 297 297 297 295 295 295 295 296 295 293 292 291 292 293 292 291 290 289 287 284 282 280 277 275 274 274 275 275
300 299 296 296 297 297 297 297 297 296 295 295 295 294 294 294 294 294 293 293 294 294 294 294 294 292 292 293 293 294 293 290 291 289 286 284 281 279 278 278 277 275 275
299 297 297 296 296 297 296 296 296 296 295 294 293 293 292 293 293 294 293 291 292 292 291 292 293 293 293 292 293 294 294 292 290 289 287 285 283 281 280 279 278 275 273
299 298 297 297 295 295 296 295 294 294 294 293 292 292 292 291 291 292 292 291 291 291 291 292 292 294 294 295 293 293 293 292 291 288 286 286 284 283 283 282 279 277 274
297 296 295 293 293 295 296 295 294 293 292 291 290 290 290 290 290 289 289 289 289 289 290 291 292 293 295 294 293 293 294 293 293 290 287 286 286 285 285 284 280 278 275
296 296 294 292 291 294 295 295 294 294 294 292 289 290 290 290 290 288 287 288 289 290 289 290 291 293 293 291 292 293 293 293 292 291 290 289 288 287 286 284 281 279 277
297 294 293 294 293 294 294 293 293 292 292 293 291 290 290 290 289 288 286 286 287 288 288 289 290 291 291 290 291 292 292 292 292 293 291 288 288 287 286 284 281 280 279
295 296 294 293 294 294 294 295 293 293 292 291 291 291 290 289 289 288 287 287 287 286 286 287 288 289 289 289 290 291 291 291 291 291 290 289 288 286 285 284 283 281 279
293 294 294 293 293 293 293 294 293 292 291 292 291 291 291 291 291 290 289 288 287 285 285 285 286 287 288 289 289 289 289 290 290 290 290 290 288 286 284 283 282 281 281
292 293 293 293 292 293 293 294 293 292 292 291 291 291 290 290 290 290 290 289 288 288 287 286 286 286 286 288 289 290 290 290 289 289 289 288 287 285 284 282 281 281 281
291 291 291 292 292 291 292 293 293 292 292 291 289 289 289 289 289 289 289 288 288 288 287 286 286 286 286 286 288 289 290 289 289 289 289 287 285 284 284 283 281 279 279
289 290 290 289 290 291 291 291 291 291 290 290 290 290 289 288 287 287 286 286 287 289 288 286 286 285 285 287 288 288 289 289 289 288 288 288 286 285 284 283 281 279 279
288 289 289 290 290 290 290 290 291 290 289 288 289 290 291 289 288 287 286 286 286 287 287 289 288 287 286 287 287 288 289 289 289 288 288 288 287 285 284 284 282 280 280
288 288 288 288 289 289 289 290 290 289 288 288 288 289 290 289 289 288 286 286 287 288 289 289 290 289 289 290 289 290 290 290 289 288 287 287 287 285 283 283 283 281 279
287 287 287 288 288 288 288 288 289 289 289 288 287 288 289 289 288 287 286 287 286 288 290 291 290 290 289 289 290 291 292 292 291 290 289 287 286 284 282 283 283 282 281
287 287 287 288 288 287 287 286 287 287 287 287 286 286 286 287 288 287 287 287 287 287 288 290 289 288 287 287 288 290 291 291 290 289 288 287 285 283 282 282 282 282 281
288 288 288 289 289 288 287 286 286 286 285 285 285 284 285 286 287 287 287 287 288 288 288 289 289 288 288 288 288 289 290 290 288 287 287 286 284 283 283 283 283 283 282
289 289 289 288 288 288 287 287 286 286 286 286 286 285 285 286 286 286 286 286 287 287 288 290 290 289 288 288 288 289 289 288 287 287 286 284 285 284 283 282 283 284 283
290 290 290 291 289 288 287 287 287 287 287 287 287 286 286 287 287 287 288 287 287 287 287 288 289 289 288 288 289 289 289 289 288 286 285 284 283 284 283 281 281 281 282
290 291 291 291 291 290 289 288 288 288 287 286 286 286 286 286 287 286 286 287 287 286 286 287 287 288 287 287 288 288 288 288 287 286 285 284 284 283 283 281 280 279 280
289 290 291 292 292 291 291 291 289 289 288 286 285 286 287 287 287 287 286 286 288 289 289 289 290 289 288 287 288 288 287 288 288 286 286 285 285 285 283 282 280 280 278
290 291 291 292 292 292 292 292 291 290 289 287 285 285 284 285 287 288 287 288 289 289 290 289 289 290 289 289 288 286 286 287 287 287 286 286 286 285 283 280 278 278 278
291 291 292 292 292 292 293 294 293 291 289 287 286 286 285 285 287 289 290 290 291 290 290 289 289 289 289 289 290 289 290 291 289 287 286 286 286 284 281 278 277 276 276
Height
5881 5879 5877 5876 5874 5872 5870 5868 5866 5864 5862 5860 5858 5856 5854 5852 5850 5848 5846 5844 5842 5840 5838 5836 5834 5832 5830 5828 5826 5824 5823 5821 5820 5819 5818 5816 5815 5814 5813 5812 5812 5811 5810
5876 5874 5872 5870 5868 5866 5864 5862 5860 5858 5856 5854 5852 5850 5848 5846 5844 5842 5840 5838 5836 5834 5832 5829 5828 5825 5824 5821 5819 5818 5816 5814 5812 5811 5810 5808 5807 5806 5805 5804 5803 5802 5802
5870 5868 5866 5864 5862 5860 5858 5856 5854 5852 5850 5848 5846 5844 5842 5839 5837 5835 5833 5831 5829 5827 5825 5823 5820 5818 5816 5814 5812 5810 5808 5806 5805 5803 5801 5800 5799 5798 5796 5795 5794 5793 5792
5864 5862 5860 5858 5856 5853 5851 5849 5847 5845 5843 5841 5839 5837 5835 5832 5830 5828 5826 5824 5822 5820 5817 5815 5813 5811 5809 5807 5805 5803 5801 5798 5797 5795 5793 5792 5790 5789 5787 5786 5785 5784 5783
5858 5855 5853 5851 5849 5846 5844 5842 5840 5837 5835 5833 5831 5829 5827 5825 5823 5821 5819 5816 5814 5812 5810 5808 5805 5803 5801 5799 5797 5795 5792 5790 5788 5786 5785 5783 5781 5780 5778 5777 5776 5775 5773
5850 5848 5845 5843 5841 5839 5837 5835 5832 5830 5828 5825 5823 5821 5819 5817 5815 5813 5811 5809 5807 5804 5802 5800 5798 5796 5794 5791 5789 5786 5784 5782 5780 5778 5777 5775 5773 5771 5769 5768 5767 5766 5764
5843 5840 5838 5836 5834 5831 5829 5827 5824 5822 5820 5817 5815 5813 5811 5809 5807 5805 5802 5801 5798 5796 5794 5792 5790 5788 5785 5783 5780 5778 5776 5774 5772 5770 5768 5766 5764 5762 5761 5759 5757 5756 5755
5836 5833 5831 5829 5826 5824 5821 5819 5816 5814 5811 5809 5807 5805 5803 5801 5799 5796 5794 5792 5790 5788 5786 5784 5782 5780 5777 5775 5772 5770 5768 5765 5763 5761 5759 5757 5755 5753 5751 5750 5748 5747 5745
5828 5826 5823 5821 5818 5815 5813 5810 5808 5805 5803 5801 5798 5796 5794 5792 5790 5788 5785 5783 5782 5780 5778 5776 5774 5771 5769 5766 5764 5762 5759 5757 5755 5752 5750 5748 5746 5744 5742 5740 5739 5737 5736
5820 5817 5815 5813 5810 5807 5804 5802 5799 5797 5795 5792 5790 5788 5785 5783 5781 5779 5777 5775 5773 5771 5769 5767 5765 5762 5760 5757 5755 5753 5751 5749 5746 5743 5741 5739 5737 5735 5732 5731 5729 5728 5726
5812 5809 5807 5804 5802 5799 5796 5793 5791 5788 5786 5784 5781 5779 5777 5774 5772 5769 5767 5765 5763 5762 5760 5757 5755 5753 5751 5748 5746 5744 5742 5739 5737 5734 5732 5729 5727 5725 5723 5721 5719 5718 5716
5803 5800 5798 5795 5792 5790 5787 5784 5782 5780 5777 5775 5772 5770 5767 5765 5763 5760 5758 5756 5754 5752 5750 5748 5746 5744 5741 5739 5737 5734 5732 5729 5727 5725 5722 5720 5718 5715 5713 5711 5709 5708 5706
5794 5791 5788 5785 5783 5780 5778 5775 5773 5770 5768 5766 5763 5761 5758 5756 5754 5751 5749 5746 5744 5742 5740 5738 5736 5734 5731 5729 5727 5724 5722 5719 5717 5715 5712 5710 5708 5705 5703 5701 5700 5698 5697
5783 5781 5778 5776 5773 5771 5768 5766 5763 5761 5758 5756 5754 5751 5749 5746 5744 5741 5739 5736 5734 5732 5730 5728 5726 5723 5721 5719 5717 5714 5712 5710 5707 5705 5702 5700 5697 5695 5694 5692 5690 5689 5687
5773 5771 5768 5766 5763 5761 5759 5756 5754 5751 5749 5746 5744 5741 5739 5736 5734 5731 5729 5726 5724 5722 5720 5717 5715 5713 5711 5709 5707 5704 5702 5699 5697 5695 5692 5690 5688 5686 5684 5682 5680 5679 5677
5763 5761 5758 5755 5753 5751 5749 5746 5744 5742 5739 5736 5734 5731 5729 5726 5723 5721 5719 5717 5715 5712 5710 5708 5705 5703 5701 5699 5696 5694 5692 5689 5687 5684 5682 5680 5678 5676 5675 5673 5671 5670 5668
5753 5751 5748 5746 5743 5741 5739 5737 5734 5732 5729 5727 5724 5721 5719 5716 5714 5712 5709 5707 5705 5702 5700 5698 5695 5693 5691 5689 5686 5684 5682 5679 5677 5674 5672 5670 5668 5667 5665 5663 5662 5660 5659
5742 5740 5738 5736 5733 5731 5729 5727 5724 5722 5720 5717 5714 5712 5709 5707 5704 5702 5699 5697 5695 5692 5690 5688 5686 5684 5681 5679 5677 5674 5672 5670 5667 5665 5663 5661 5659 5658 5656 5654 5653 5652 5650
5731 5729 5727 5725 5723 5721 5718 5716 5714 5711 5709 5707 5705 5702 5700 5697 5694 5692 5690 5687 5685 5683 5681 5678 5676 5674 5671 5669 5667 5665 5663 5660 5658 5656 5654 5652 5650 5649 5647 5646 5644 5643 5642
5721 5719 5717 5715 5712 5710 5708 5706 5703 5701 5699 5697 5695 5693 5690 5687 5685 5682 5680 5677 5675 5673 5671 5668 5666 5664 5662 5660 5658 5656 5654 5651 5649 5648 5645 5643 5641 5640 5639 5637 5636 5635 5634
5711 5708 5706 5704 5702 5700 5698 5695 5693 5691 5689 5687 5684 5682 5680 5677 5675 5673 5670 5668 5665 5663 5661 5659 5657 5655 5653 5651 5649 5647 5645 5643 5641 5639 5637 5635 5633 5632 5631 5630 5628 5627 5626
5701 5699 5697 5694 5692 5690 5687 5685 5683 5681 5678 5676 5674 5672 5669 5667 5665 5663 5660 5658 5656 5654 5652 5649 5647 5645 5643 5641 5639 5637 5635 5634 5632 5630 5629 5627 5626 5624 5623 5622 5621 5620 5619
5691 5689 5687 5684 5682 5680 5677 5675 5673 5670 5668 5666 5664 5662 5660 5658 5655 5653 5651 5649 5647 5644 5642 5640 5638 5636 5634 5632 5630 5629 5627 5625 5623 5622 5620 5619 5618 5617 5616 5614 5614 5613 5613
5682 5679 5677 5675 5673 5670 5667 5665 5662 5660 5657 5656 5654 5652 5650 5648 5646 5644 5642 5639 5637 5635 5633 5631 5629 5627 5625 5623 5621 5620 5618 5617 5615 5614 5612 5611 5610 5609 5608 5607 5607 5607 5606
5672 5670 5668 5666 5663 5661 5658 5655 5652 5650 5647 5645 5644 5642 5640 5639 5637 5634 5632 5630 5628 5626 5624 5622 5620 5618 5616 5615 5613 5611 5610 5609 5607 5606 5605 5604 5603 5602 5601 5601 5600 5600 5599
5663 5661 5659 5656 5654 5651 5649 5646 5643 5640 5638 5636 5634 5632 5631 5629 5627 5625 5623 5621 5619 5617 5615 5613 5611 5609 5608 5606 5605 5603 5602 5601 5599 5598 5597 5597 5596 5595 5595 5594 5594 5593 5593